Tracking 31027 objects as of 19-Jul-2025
HD Live streaming from Space Station
objects crossing your sky now

STARLINK-3271

Track STARLINK-3271 now!
10-day predictions
STARLINK-3271 is classified as:


NORAD ID: 50167
Int'l Code: 2021-125M
Perigee: 546.2 km
Apogee: 547.6 km
Inclination: 53.2 °
Period: 95.4 minutes
Semi major axis: 6917 km
RCS: Unknown
Launch date: December 18, 2021
Source: United States (US)
Launch site: AIR FORCE WESTERN TEST RANGE (AFWTR)
Your satellite tracking list
ST5-A
Track 1 satellite(s)




NASA's NSSDC Master Catalog

Two Line Element Set (TLE):
1 50167U 21125M   25199.39323484  .00000015  00000-0  19038-4 0  9993
2 50167  53.2163 230.9301 0001080  94.6504 265.4611 15.08834551201082
Source of the keplerian elements: AFSPC